TimeEDT,TemperatureF,Dew PointF,Humidity,Sea Level PressureIn,VisibilityMPH,Wind Direction,Wind SpeedMPH,Gust SpeedMPH,PrecipitationIn,Events,Conditions,WindDirDegrees,DateUTC
12:54 AM,72.0,66.9,84,29.84,10.0,South,11.5,18.4,N/A,,Mostly Cloudy,180,2013-04-12 04:54:00
1:54 AM,72.0,66.0,81,29.82,10.0,South,6.9,-,N/A,,Overcast,180,2013-04-12 05:54:00
2:54 AM,71.1,64.9,81,29.80,10.0,South,8.1,21.9,N/A,,Overcast,180,2013-04-12 06:54:00
3:54 AM,71.1,64.9,81,29.78,10.0,South,10.4,19.6,N/A,,Overcast,190,2013-04-12 07:54:00
4:45 AM,69.8,66.2,88,29.80,2.5,SSW,13.8,23.0,0.08,Rain,Heavy Rain,200,2013-04-12 08:45:00
4:54 AM,69.1,66.0,90,29.80,2.5,South,8.1,23.0,0.13,Rain,Rain,190,2013-04-12 08:54:00
5:03 AM,68.0,66.2,94,29.80,3.0,South,10.4,19.6,0.03,Rain,Rain,190,2013-04-12 09:03:00
5:54 AM,66.9,64.9,93,29.77,6.0,Variable,5.8,-,0.10,Rain,Light Rain,0,2013-04-12 09:54:00
6:21 AM,66.2,66.2,100,29.76,10.0,South,8.1,17.3,0.02,,Overcast,170,2013-04-12 10:21:00
6:54 AM,68.0,66.0,93,29.76,10.0,South,5.8,-,0.02,,Overcast,180,2013-04-12 10:54:00
7:46 AM,68.0,66.2,94,29.78,10.0,South,10.4,17.3,N/A,,Overcast,170,2013-04-12 11:46:00
7:54 AM,68.0,66.9,96,29.78,10.0,South,9.2,-,N/A,,Overcast,190,2013-04-12 11:54:00
8:03 AM,69.8,66.2,88,29.78,10.0,South,5.8,-,N/A,,Overcast,180,2013-04-12 12:03:00
8:54 AM,70.0,68.0,93,29.77,10.0,South,5.8,-,N/A,,Overcast,170,2013-04-12 12:54:00
9:13 AM,71.6,68.0,88,29.78,10.0,SSW,6.9,-,N/A,,Overcast,200,2013-04-12 13:13:00
9:54 AM,73.0,69.1,87,29.77,10.0,SSW,6.9,-,N/A,,Mostly Cloudy,210,2013-04-12 13:54:00
10:09 AM,73.4,69.8,88,29.77,10.0,SSW,8.1,17.3,N/A,,Mostly Cloudy,200,2013-04-12 14:09:00
10:18 AM,73.4,69.8,88,29.77,10.0,SW,9.2,20.7,N/A,,Mostly Cloudy,220,2013-04-12 14:18:00
10:54 AM,75.0,69.1,82,29.76,10.0,SSW,13.8,20.7,N/A,,Overcast,210,2013-04-12 14:54:00
11:19 AM,78.8,69.8,74,29.76,10.0,SSW,11.5,19.6,N/A,,Mostly Cloudy,200,2013-04-12 15:19:00
11:54 AM,78.1,69.1,74,29.75,10.0,SSW,15.0,21.9,N/A,,Mostly Cloudy,210,2013-04-12 15:54:00
12:54 PM,78.1,68.0,71,29.73,10.0,SSW,12.7,19.6,N/A,,Overcast,210,2013-04-12 16:54:00
1:54 PM,81.0,70.0,69,29.70,10.0,SSW,11.5,20.7,N/A,,Mostly Cloudy,210,2013-04-12 17:54:00
2:54 PM,81.0,70.0,69,29.68,10.0,SSW,11.5,19.6,N/A,,Mostly Cloudy,210,2013-04-12 18:54:00
3:27 PM,71.6,66.2,83,29.70,2.5,WSW,18.4,26.5,0.06,Rain,Rain,250,2013-04-12 19:27:00
3:29 PM,69.8,66.2,88,29.70,1.2,WSW,16.1,26.5,0.10,Rain,Heavy Rain,250,2013-04-12 19:29:00
3:39 PM,69.8,68.0,94,29.69,4.0,WSW,10.4,-,0.10,Rain,Light Rain,250,2013-04-12 19:39:00
3:54 PM,73.9,69.1,85,29.68,10.0,WSW,6.9,-,0.10,,Mostly Cloudy,250,2013-04-12 19:54:00
4:54 PM,75.0,69.1,82,29.68,10.0,SW,8.1,-,N/A,,Scattered Clouds,220,2013-04-12 20:54:00
5:54 PM,77.0,69.1,76,29.67,10.0,SSW,6.9,-,N/A,,Partly Cloudy,210,2013-04-12 21:54:00
6:54 PM,77.0,68.0,74,29.68,10.0,SW,9.2,-,N/A,,Clear,220,2013-04-12 22:54:00
7:54 PM,73.0,68.0,84,29.70,10.0,South,6.9,-,N/A,,Clear,190,2013-04-12 23:54:00
8:54 PM,71.1,68.0,90,29.71,10.0,SSW,8.1,-,N/A,,Clear,200,2013-04-13 00:54:00
9:54 PM,71.1,68.0,90,29.74,10.0,SSW,6.9,-,N/A,,Clear,210,2013-04-13 01:54:00
10:54 PM,70.0,68.0,93,29.76,9.0,SW,6.9,-,N/A,,Clear,220,2013-04-13 02:54:00
11:54 PM,66.9,62.1,84,29.78,10.0,WSW,8.1,-,N/A,,Clear,250,2013-04-13 03:54:00